Previsão horária em Barnin

Hoje, 5 Agosto, Quinta-feira

Tempo Temperatura Precipitação Vento Pressão Humidade
00:00 +13°C° 0 mm 3 m/s 760 mmHg 84%
01:00 +13°C° 0 mm 3 m/s 760 mmHg 86%
02:00 +12°C° 0 mm 3 m/s 759 mmHg 88%
03:00 +12°C° 0 mm 3 m/s 759 mmHg 89%
04:00 +12°C° 0 mm 3 m/s 759 mmHg 90%
05:00 +14°C° 0 mm 3 m/s 759 mmHg 83%
06:00 +16°C° 0 mm 3 m/s 759 mmHg 76%
07:00 +18°C° 0 mm 3 m/s 759 mmHg 69%
08:00 +19°C° 0 mm 3 m/s 759 mmHg 62%
09:00 +21°C° 0 mm 4 m/s 759 mmHg 55%
10:00 +23°C° 0 mm 4 m/s 759 mmHg 48%
11:00 +23°C° 0 mm 4 m/s 758 mmHg 46%
12:00 +25°C° 0 mm 5 m/s 758 mmHg 44%
13:00 +24°C° 0 mm 6 m/s 757 mmHg 42%
14:00 +24°C° 0 mm 6 m/s 757 mmHg 45%
15:00 +23°C° 0 mm 7 m/s 757 mmHg 48%
16:00 +23°C° 0 mm 8 m/s 757 mmHg 51%
17:00 +22°C° 0 mm 7 m/s 757 mmHg 53%
18:00 +21°C° 0 mm 6 m/s 756 mmHg 55%
19:00 +21°C° 0 mm 6 m/s 756 mmHg 57%
20:00 +20°C° 0 mm 6 m/s 756 mmHg 62%
21:00 +19°C° 0 mm 6 m/s 756 mmHg 66%
22:00 +17°C° 0 mm 5 m/s 756 mmHg 71%
23:00 +16°C° 0 mm 5 m/s 756 mmHg 74%

Amanhã, 6 Agosto, Sexta-feira

Tempo Temperatura Precipitação Vento Pressão Humidade
00:00 +17°C° 0 mm 4 m/s 756 mmHg 77%
01:00 +15°C° 0 mm 4 m/s 756 mmHg 80%
02:00 +16°C° 0 mm 3 m/s 756 mmHg 80%
03:00 +16°C° 0 mm 3 m/s 755 mmHg 79%
04:00 +16°C° 0 mm 3 m/s 755 mmHg 78%
05:00 +17°C° 0 mm 3 m/s 755 mmHg 74%
06:00 +18°C° 0 mm 4 m/s 755 mmHg 71%
07:00 +19°C° 0 mm 4 m/s 755 mmHg 67%
08:00 +20°C° 0 mm 5 m/s 755 mmHg 60%
09:00 +21°C° 0 mm 5 m/s 755 mmHg 52%
10:00 +22°C° 0 mm 5 m/s 755 mmHg 45%
11:00 +23°C° 0 mm 6 m/s 755 mmHg 43%
12:00 +23°C° 0 mm 6 m/s 755 mmHg 40%
13:00 +23°C° 0 mm 7 m/s 755 mmHg 38%
14:00 +23°C° 0 mm 7 m/s 755 mmHg 39%
15:00 +23°C° 0 mm 7 m/s 755 mmHg 41%
16:00 +22°C° 0 mm 7 m/s 755 mmHg 42%
17:00 +21°C° 0 mm 7 m/s 754 mmHg 46%
18:00 +20°C° 0 mm 6 m/s 754 mmHg 51%
19:00 +19°C° 0 mm 6 m/s 754 mmHg 55%
20:00 +17°C° 0 mm 5 m/s 754 mmHg 60%
21:00 +17°C° 0 mm 4 m/s 754 mmHg 65%
22:00 +14°C° 0 mm 4 m/s 754 mmHg 70%
23:00 +14°C° 0 mm 3 m/s 754 mmHg 72%

Depois de amanhã, 7 Agosto, Sábado

Tempo Temperatura Precipitação Vento Pressão Humidade
00:00 +14°C° 0 mm 3 m/s 754 mmHg 74%
01:00 +14°C° 0 mm 2 m/s 754 mmHg 76%
02:00 +14°C° 0 mm 2 m/s 754 mmHg 75%
03:00 +14°C° 0 mm 2 m/s 753 mmHg 74%
04:00 +14°C° 0 mm 2 m/s 753 mmHg 73%
05:00 +16°C° 0 mm 2 m/s 753 mmHg 69%
06:00 +17°C° 0 mm 2 m/s 753 mmHg 64%
07:00 +18°C° 0 mm 2 m/s 753 mmHg 59%
08:00 +20°C° 0 mm 2 m/s 753 mmHg 57%
09:00 +21°C° 0 mm 3 m/s 753 mmHg 55%
10:00 +24°C° 0 mm 3 m/s 753 mmHg 52%
11:00 +24°C° 0.1 mm 3 m/s 753 mmHg 53%
12:00 +23°C° 0.1 mm 4 m/s 753 mmHg 54%
13:00 +25°C° 0.1 mm 4 m/s 753 mmHg 55%
14:00 +24°C° 0.1 mm 3 m/s 753 mmHg 59%
15:00 +22°C° 0.1 mm 3 m/s 754 mmHg 63%
16:00 +21°C° 0.1 mm 2 m/s 754 mmHg 68%
17:00 +21°C° 0 mm 2 m/s 754 mmHg 69%
18:00 +20°C° 0 mm 2 m/s 754 mmHg 71%
19:00 +20°C° 0 mm 2 m/s 754 mmHg 72%
20:00 +19°C° 0 mm 2 m/s 754 mmHg 74%
21:00 +19°C° 0 mm 3 m/s 754 mmHg 75%
22:00 +18°C° 0 mm 3 m/s 754 mmHg 77%
23:00 +19°C° 0 mm 3 m/s 754 mmHg 72%

8 Agosto, Domingo

Tempo Temperatura Precipitação Vento Pressão Humidade
00:00 +19°C° 0 mm 3 m/s 754 mmHg 68%
01:00 +20°C° 0 mm 3 m/s 753 mmHg 63%
02:00 +19°C° 0.2 mm 2 m/s 753 mmHg 68%
03:00 +19°C° 0.2 mm 2 m/s 753 mmHg 73%
04:00 +19°C° 0.2 mm 1 m/s 753 mmHg 78%
05:00 +19°C° 2.2 mm 1 m/s 753 mmHg 83%
06:00 +18°C° 2.2 mm 1 m/s 753 mmHg 89%
07:00 +18°C° 2.2 mm 1 m/s 753 mmHg 94%
08:00 +18°C° 0.1 mm 3 m/s 753 mmHg 90%
09:00 +19°C° 0.1 mm 4 m/s 753 mmHg 86%
10:00 +19°C° 0.1 mm 5 m/s 753 mmHg 83%
11:00 +21°C° 0.2 mm 5 m/s 754 mmHg 75%
12:00 +22°C° 0.2 mm 6 m/s 754 mmHg 68%
13:00 +23°C° 0.2 mm 6 m/s 754 mmHg 60%
14:00 +23°C° 0.4 mm 6 m/s 754 mmHg 62%
15:00 +22°C° 0.4 mm 6 m/s 755 mmHg 63%
16:00 +22°C° 0.4 mm 6 m/s 755 mmHg 65%
17:00 +21°C° 0.2 mm 5 m/s 755 mmHg 68%
18:00 +20°C° 0.2 mm 4 m/s 756 mmHg 70%
19:00 +20°C° 0.2 mm 2 m/s 756 mmHg 73%
20:00 +19°C° 0.2 mm 3 m/s 756 mmHg 75%
21:00 +18°C° 0.2 mm 4 m/s 757 mmHg 78%
22:00 +17°C° 0.2 mm 5 m/s 757 mmHg 80%
23:00 +16°C° 0.1 mm 6 m/s 757 mmHg 82%

9 Agosto, Segunda-feira

Tempo Temperatura Precipitação Vento Pressão Humidade
00:00 +15°C° 0.1 mm 6 m/s 758 mmHg 85%
01:00 +15°C° 0.1 mm 6 m/s 758 mmHg 88%
02:00 +14°C° 0.1 mm 7 m/s 758 mmHg 88%
03:00 +14°C° 0.1 mm 7 m/s 758 mmHg 89%
04:00 +14°C° 0.1 mm 7 m/s 758 mmHg 90%
05:00 +14°C° 0.5 mm 7 m/s 758 mmHg 89%
06:00 +15°C° 0.5 mm 8 m/s 759 mmHg 88%
07:00 +15°C° 0.5 mm 8 m/s 759 mmHg 87%
08:00 +16°C° 1.4 mm 8 m/s 759 mmHg 84%
09:00 +17°C° 1.4 mm 8 m/s 760 mmHg 81%
10:00 +17°C° 1.4 mm 7 m/s 760 mmHg 78%
11:00 +20°C° 0.1 mm 7 m/s 760 mmHg 68%
12:00 +21°C° 0.1 mm 7 m/s 761 mmHg 58%
13:00 +23°C° 0.1 mm 7 m/s 761 mmHg 48%
14:00 +23°C° 0 mm 6 m/s 761 mmHg 46%
15:00 +23°C° 0 mm 6 m/s 761 mmHg 45%
16:00 +25°C° 0 mm 5 m/s 761 mmHg 44%
17:00 +23°C° 0 mm 4 m/s 761 mmHg 47%
18:00 +22°C° 0 mm 4 m/s 761 mmHg 50%
19:00 +21°C° 0 mm 3 m/s 761 mmHg 53%
20:00 +20°C° 0.1 mm 3 m/s 761 mmHg 56%
21:00 +20°C° 0.1 mm 3 m/s 762 mmHg 60%
22:00 +19°C° 0.1 mm 3 m/s 762 mmHg 63%
23:00 +19°C° 0.1 mm 4 m/s 762 mmHg 66%

10 Agosto, Terça-feira

Tempo Temperatura Precipitação Vento Pressão Humidade
00:00 +18°C° 0.1 mm 4 m/s 762 mmHg 68%
01:00 +18°C° 0.1 mm 4 m/s 762 mmHg 71%
02:00 +16°C° 0.1 mm 5 m/s 762 mmHg 74%
03:00 +16°C° 0.1 mm 5 m/s 762 mmHg 76%
04:00 +15°C° 0.1 mm 5 m/s 762 mmHg 79%
05:00 +15°C° 0.1 mm 5 m/s 762 mmHg 80%
06:00 +15°C° 0.1 mm 5 m/s 762 mmHg 80%
07:00 +16°C° 0.1 mm 5 m/s 762 mmHg 81%
08:00 +16°C° 0.3 mm 5 m/s 762 mmHg 81%
09:00 +16°C° 0.3 mm 5 m/s 762 mmHg 82%
10:00 +16°C° 0.3 mm 5 m/s 762 mmHg 82%
11:00 +17°C° 0.6 mm 5 m/s 762 mmHg 80%
12:00 +19°C° 0.6 mm 5 m/s 762 mmHg 77%
13:00 +20°C° 0.6 mm 5 m/s 762 mmHg 75%
14:00 +20°C° 0.2 mm 5 m/s 762 mmHg 71%
15:00 +21°C° 0.2 mm 5 m/s 762 mmHg 68%
16:00 +21°C° 0.2 mm 5 m/s 762 mmHg 64%
17:00 +20°C° 0.1 mm 4 m/s 762 mmHg 68%
18:00 +19°C° 0.1 mm 4 m/s 762 mmHg 73%
19:00 +18°C° 0.1 mm 3 m/s 762 mmHg 77%
20:00 +18°C° 0 mm 3 m/s 762 mmHg 80%
21:00 +17°C° 0 mm 3 m/s 762 mmHg 82%
22:00 +16°C° 0 mm 3 m/s 763 mmHg 84%
23:00 +16°C° 0 mm 3 m/s 763 mmHg 85%
Mostrar mais